Change the Weather History Date:

Thursday, November 27, 2014

  Actual Average Record
Temperature  
Mean Temperature 21 °F 36 °F  
Max Temperature 28 °F 44 °F 72 °F (1989)
Min Temperature 13 °F 28 °F 3 °F (1930)
Degree Days  
Heating Degree Days 44 29  
Month to date heating degree days 785 611  
Since 1 July heating degree days 1161 1057  
Cooling Degree Days 0 0  
Month to date cooling degree days 0 0  
Year to date cooling degree days 1156 1039  
Moisture  
Dew Point 15 °F    
Average Humidity 71    
Maximum Humidity 81    
Minimum Humidity 60    
Precipitation  
Precipitation T in 0.11 in 4.26 in (1990)
Month to date precipitation 1.07 2.83  
Year to date precipitation 38.54 33.77  
Snow  
Snow 0.10 in 0.10 in 3.80 in (1977)
Month to date snowfall 1.3 0.8  
Since 1 July snowfall 1.3 0.8  
Since 1 September snowfall 1.3 0.8  
Snow Depth 1.00 in    
Sea Level Pressure  
Sea Level Pressure 30.42 in    
Wind  
Wind Speed 7 mph (WNW)    
Max Wind Speed 17 mph    
Max Gust Speed 22 mph    
Visibility 7 miles    
Events Snow    
T = Trace of Precipitation, MM = Missing Value Source: NWS Daily Summary

Daily Weather History Graph

Daily Weather History Graph

Search for Another Location

Airport or City:

Trip Planner

Search our weather history database for the weather conditions in past years. The results will help you decide how hot, cold, wet, or windy it might be!

Date:

Astronomy

Nov. 27, 2014 Rise Set
Actual Time 6:59 AM CST 4:33 PM CST
Civil Twilight 6:28 AM CST 5:03 PM CST
Nautical Twilight 5:55 AM CST 5:37 PM CST
Astronomical Twilight 5:22 AM CST 6:10 PM CST
Moon 11:13 AM CST (11/27) 10:14 PM CST (11/27)
Length of Visible Light 10h 34m
Length of Day
9h 34m
Waxing Crescent, 31% of the Moon is Illuminated
Nov 27
Waxing Crescent
Nov 29
First Quarter
Dec 6
Full
Dec 14
Last Quarter
Dec 21
New

Hourly Weather History & Observations

Time (CST) Temp. Windchill Dew Point Humidity Pressure Visibility Wind Dir Wind Speed Gust Speed Precip Events Conditions
12:54 AM 24.1 °F 19.7 °F 17.1 °F 75% 30.28 in 8.0 mi North 3.5 mph - N/A   Mostly Cloudy
1:54 AM 24.1 °F 17.0 °F 17.1 °F 75% 30.32 in 7.0 mi NW 5.8 mph - N/A   Mostly Cloudy
2:47 AM 25.0 °F - 18.0 °F 75% 30.31 in 7.0 mi Calm Calm - N/A   Overcast
2:54 AM 25.0 °F 20.7 °F 18.0 °F 75% 30.34 in 6.0 mi NW 3.5 mph - N/A   Haze
3:54 AM 25.0 °F 17.1 °F 19.0 °F 78% 30.35 in 6.0 mi NW 6.9 mph - N/A   Haze
4:54 AM 26.1 °F 17.6 °F 19.0 °F 75% 30.37 in 6.0 mi NW 8.1 mph - N/A   Haze
5:54 AM 26.1 °F 18.4 °F 21.0 °F 81% 30.38 in 6.0 mi NW 6.9 mph - N/A   Haze
6:10 AM 27.0 °F 19.5 °F 21.0 °F 78% 30.36 in 7.0 mi NW 6.9 mph - N/A   Overcast
6:22 AM 27.0 °F 18.7 °F 19.9 °F 75% 30.36 in 7.0 mi NW 8.1 mph - N/A   Overcast
6:54 AM 27.0 °F 18.7 °F 19.9 °F 75% 30.40 in 9.0 mi NW 8.1 mph - N/A   Overcast
7:54 AM 27.0 °F 20.5 °F 19.9 °F 75% 30.41 in 8.0 mi WNW 5.8 mph - N/A   Overcast
8:54 AM 28.0 °F 20.8 °F 21.0 °F 75% 30.43 in 2.5 mi WNW 6.9 mph - 0.00 in Snow Light Snow
9:13 AM 28.0 °F 20.0 °F 21.0 °F 75% 30.41 in 1.5 mi WNW 8.1 mph - 0.00 in Snow Light Snow
9:22 AM 28.0 °F 18.6 °F 21.9 °F 78% 30.41 in 1.2 mi WNW 10.4 mph - 0.00 in Snow Light Snow
9:49 AM 26.6 °F 19.1 °F 21.2 °F 80% 30.42 in 1.5 mi WNW 6.9 mph 17.3 mph 0.00 in Snow Light Snow
9:54 AM 27.0 °F 15.2 °F 21.0 °F 78% 30.45 in 2.0 mi WNW 15.0 mph - 0.00 in Snow Light Snow
9:59 AM 27.0 °F 17.3 °F 19.9 °F 75% 30.42 in 3.0 mi WNW 10.4 mph - 0.00 in Snow Light Snow
10:54 AM 26.1 °F 15.6 °F 18.0 °F 71% 30.46 in 5.0 mi WNW 11.5 mph 21.9 mph 0.00 in   Haze
11:54 AM 26.1 °F 15.6 °F 17.1 °F 69% 30.45 in 9.0 mi NW 11.5 mph 18.4 mph N/A   Overcast
12:02 PM 26.1 °F 14.0 °F 18.0 °F 71% 30.42 in 9.0 mi West 15.0 mph - N/A   Overcast
12:54 PM 25.0 °F 14.2 °F 16.0 °F 69% 30.45 in 10.0 mi WNW 11.5 mph - N/A   Overcast
1:54 PM 25.0 °F 14.2 °F 16.0 °F 69% 30.45 in 10.0 mi WNW 11.5 mph - N/A   Overcast
2:54 PM 24.1 °F 13.7 °F 12.9 °F 62% 30.47 in 10.0 mi WNW 10.4 mph - N/A   Mostly Cloudy
3:05 PM 24.1 °F 15.2 °F 12.9 °F 62% 30.43 in 10.0 mi WNW 8.1 mph - N/A   Scattered Clouds
3:54 PM 21.9 °F 12.5 °F 12.0 °F 66% 30.48 in 10.0 mi WNW 8.1 mph - N/A   Clear
4:54 PM 19.9 °F 11.1 °F 9.0 °F 62% 30.49 in 10.0 mi West 6.9 mph - N/A   Clear
5:54 PM 17.1 °F 10.0 °F 8.1 °F 68% 30.50 in 10.0 mi WNW 4.6 mph - N/A   Clear
6:54 PM 15.1 °F 6.4 °F 7.0 °F 70% 30.49 in 10.0 mi WNW 5.8 mph - N/A   Clear
7:54 PM 14.0 °F 8.2 °F 7.0 °F 74% 30.47 in 10.0 mi NW 3.5 mph - N/A   Clear
8:54 PM 14.0 °F 8.2 °F 6.1 °F 71% 30.48 in 10.0 mi West 3.5 mph - N/A   Clear
9:54 PM 15.1 °F 9.4 °F 9.0 °F 77% 30.47 in 10.0 mi West 3.5 mph - N/A   Clear
10:54 PM 14.0 °F 3.9 °F 8.1 °F 77% 30.47 in 10.0 mi SW 6.9 mph - N/A   Mostly Cloudy
11:54 PM 15.1 °F - 8.1 °F 74% 30.45 in 10.0 mi Calm Calm - N/A   Overcast